OBJECT A, 68416

Orbit data source: Space-Track

You're viewing an Uncataloged Satellite

Recently launched and/or uncataloged satellites may have evolving metadata. Metadata may include but not limited to: Owner, Maufacturer, Bus, Motor, and Mission.

OBJECT A, 68416 is a satellite in SSO that was launched on Mon, 30 Mar 2026 UTC via an FALCON 9 launch vehicle from the Air Force Western Test Range (AFWTR). Unknown objects in Earth's orbit typically refer to objects detected orbiting the Earth but have not yet been identified or cataloged. These objects could be anything from previously untracked satellites, spent rocket stages, debris from satellite collisions, or even natural meteoroids temporarily captured by Earth's gravity.

Loading next visibility...
Identifier
68416, 2026-067A
Orbit
SSO
Country
Flag of TBDTBD
Related business
None
Manufacturer
Unknown
Mission
Operational spacecraft
Bus & Motor
Unknown
Mass
Unknown
Launch date (UTC)
2026-03-30 (2 months ago)
Launch vehicle
FALCON 9
Launch site
Air Force Western Test Range (AFWTR)
Object type
Unknown
Shape & HBR
Unknown shape, 1.1 m
Radar Cross Section
Medium (>0.1 m² and <1 m²)

Expand to show TLE details & history
Last TLE update: 3 days ago

TLE from 3 days ago
0 OBJECT A
1 68416U 26067A   26155.11788357  .00007547  00000-0  36058-3 0  9993
2 68416  97.4547 113.8622 0001654  21.5062 338.6241 15.19307601  9962
Epoch: 2026-06-04T02:49Z
TLE epoch observation values (Epoch: 2026-06-04T02:49:45.140Z)
Latitude
-0.0001°
Longitude
178.85738°
Altitude
509.959 km
Speed
7.61 km/s
True Right ascension
07h 35m 26s
True Declination
0° 00' 00"
Sunlit
Object was in daylight at epoch
Visualization orbit readout
Latitude
Unknown
Longitude
Unknown
Altitude
Unknown
Speed
Unknown
Apparent Right ascension
Unknown
Apparent Declination
Unknown
Sunlit
N/A
Visualization observer readout
Local Sidereal Time
02:10:53
Azimuth
Unknown
Elevation
Unknown
Doppler factor
Unknown
Orbital elements
Apogee altitude
506.039 km
Perigee altitude
503.762 km
Semi-major axis
6,883.038 km
Eccentricity
0.00017
Inclination
97.4547°
RAAN
113.8622°
Arg. of periapsis
21.5062°
True anomaly
338.61719°
Mean anomaly
338.6241°
Eccentric anomaly
338.62065°
Mean motion
3.80078 °/min
Orbital period
94.72 mins
BSTAR
0.00036058
Loading maneuver chart data...
Computing Atmospheric mass density...
Loading historical data...
Loading historical data...
Loading historical data...
Loading historical data...
Loading historical data...
Loading historical data...
Loading historical data...

Documentation

Showing up to 5 results
|